FENGYUN 1C DEB, 29859

Orbit data source: Space-Track

FENGYUN 1C DEB, 29859 is space debris in SSO originally from a launch on Mon, 10 May 1999 UTC launched from the Taiyaun Space Center, China (TSC). Fengyun 1C debris stems from the Chinese weather satellite Fengyun-1C, which was intentionally destroyed by a Chinese anti-satellite missile in 2007. This event dramatically increased the amount of space debris, with thousands of trackable fragments posing hazards to satellites and human spaceflight. The Fengyun 1C debris cloud has become a focal point in discussions about space sustainability and the need for international regulations to prevent the creation of new debris.

Loading next visibility...
Identifier
29859, 1999-025FD
Orbit
SSO
Country
Flag of CNCN / PRC
Related business
Manufacturer
Unknown
Mission
Spacecraft
Bus & Motor
Unknown
Mass
Unknown
Launch date (UTC)
1999-05-10 (27 years ago)
Launch vehicle
Unknown
Launch site
Taiyaun Space Center, China (TSC)
Object type
Payload
Rocket body
Debris
Shape & HBR
Unknown shape, 0.1 m
Radar Cross Section
Small (<0.1 m²)

Expand to show TLE details & history
Last TLE update: 1 day ago

TLE from 1 day ago
0 FENGYUN 1C DEB
1 29859U 99025FD  25349.52291893  .00002303  00000-0  18187-2 0  9995
2 29859  98.3354 183.8897 0294791 205.4469 153.1918 13.74051460940184
Epoch: 2025-12-15T12:33Z
TLE epoch observation values (Epoch: 2025-12-15T12:33:00.195Z)
Latitude
-0.00008°
Longitude
-88.78137°
Altitude
1,182.945 km
Speed
7.165 km/s
True Right ascension
12h 15m 33s
True Declination
0° 00' 00"
Sunlit
Object was in daylight at epoch
Visualization orbit readout
Latitude
Unknown
Longitude
Unknown
Altitude
Unknown
Speed
Unknown
Apparent Right ascension
Unknown
Apparent Declination
Unknown
Sunlit
N/A
Visualization observer readout
Local Sidereal Time
12:30:58
Azimuth
Unknown
Elevation
Unknown
Doppler factor
Unknown
Orbital elements
Apogee altitude
1,199.239 km
Perigee altitude
765.283 km
Semi-major axis
7,360.398 km
Eccentricity
0.02948
Inclination
98.3354°
RAAN
183.8897°
Arg. of periapsis
205.4469°
True anomaly
154.66659°
Mean anomaly
153.1918°
Eccentric anomaly
153.93397°
Mean motion
3.43709 °/min
Orbital period
104.74 mins
BSTAR
0.0018187
Loading maneuver chart data...
Computing Atmospheric mass density...

Documentation

Showing up to 5 results
|